Home   Weather   Charlotte   Past weeks

Flag for USA Past Weather in Charlotte, North Carolina, USA — Yesterday and Last 2 Weeks

Now
61 °F

Mostly cloudy.


Feels Like: 61 °F
Forecast: 56 / 64 °F
Wind: 17 mph from Northeast

Location: Charlotte / Douglas International Airport

Current Time: Apr 23, 2017 at 1:45:24 am

Latest Report: Apr 23, 2017 at 12:52 am


Visibility: 10 mi

Pressure: 29.94 "Hg

Humidity: 81%

Dew Point: 55 °F

Location of CharlotteLocation

Past Weather in Charlotte — Graph

°F

Charlotte Temperature Yesterday

Maximum temperature yesterday: 85 °F (at 2:52 pm)
Minimum temperature yesterday: 64 °F (at 6:52 am)
Average temperature yesterday: 74 °F

High & Low Weather Summary for the Past Weeks

 TemperatureHumidityPressure
High87 °F (Apr 21, 2:52 pm)97% (Apr 20, 8:32 am)30.37 "Hg (Apr 20, 8:32 am)
Low35 °F (Apr 8, 5:52 am)18% (Apr 9, 4:52 pm)29.78 "Hg (Apr 22, 5:52 pm)
Average67 °F61%30.17 "Hg
* Reported Apr 8 12:52 am — Apr 23 12:20 am, Charlotte, Weather by CustomWeather, © 2017

Note: Actual official high and low records may vary slightly from our data, if they occured in-between our weather recording intervals... More about our weather records

Advertising

Charlotte Weather History for the Previous 24 Hours

Scroll right to see more
 ConditionsComfort  
Time TempWeatherWind HumidityBarometerVisibility
12:20 am
Sun, Apr 23
65 °FPassing clouds.15 mph81%29.94 "Hg10 mi
11:52 pm
Sat, Apr 22
67 °FPassing clouds.13 mph73%29.88 "Hg10 mi
10:52 pm71 °FOvercast.9 mph63%29.87 "Hg10 mi
10:22 pm72 °FMostly cloudy.16 mph61%29.88 "Hg10 mi
9:52 pm74 °FOvercast.No wind52%29.84 "Hg10 mi
8:52 pm76 °FMostly cloudy.7 mph45%29.81 "Hg10 mi
7:52 pm78 °FPartly sunny.7 mph43%29.79 "Hg10 mi
6:52 pm82 °FPartly sunny.9 mph37%29.78 "Hg10 mi
5:52 pm82 °FBroken clouds.13 mph35%29.78 "Hg10 mi
4:52 pm84 °FPartly sunny.13 mph33%29.78 "Hg10 mi
3:52 pm84 °FScattered clouds.21 mph32%29.79 "Hg10 mi
2:52 pm85 °FPassing clouds.18 mph29%29.82 "Hg10 mi
1:52 pm83 °FPartly sunny.12 mph38%29.84 "Hg10 mi
12:52 pm78 °FPartly sunny.14 mph50%29.87 "Hg10 mi
11:52 am79 °FPartly sunny.14 mph54%29.89 "Hg10 mi
10:52 am75 °FPartly sunny.10 mph62%29.89 "Hg10 mi
9:52 am71 °FScattered clouds.10 mph71%29.89 "Hg10 mi
8:52 am68 °FPassing clouds.10 mph76%29.89 "Hg10 mi
7:52 am66 °FPassing clouds.9 mph81%29.88 "Hg10 mi
6:52 am64 °FPassing clouds.6 mph87%29.86 "Hg10 mi
5:52 am65 °FPassing clouds.6 mph91%29.85 "Hg10 mi
4:52 am66 °FPassing clouds.No wind87%29.86 "Hg10 mi
3:52 am68 °FLight rain. Passing clouds.5 mph82%29.86 "Hg10 mi
2:52 am67 °FPassing clouds.8 mph81%29.89 "Hg10 mi
1:52 am68 °FPassing clouds.7 mph76%29.89 "Hg10 mi
Weather by CustomWeather, © 2017

See weather overviewHow to use our weather pages